IW8PDD-3 Weather Reports


time (UTC)temp
C
wind
direction
speed
KPH
gust
KPH
rain 1hr
cm
rain 24hr
cm
rain mn
cm
humidity
%
barometer
mb
20260507102630 26 0.0 0.0 0.00 0.00 0.00 43 1010.8
20260507100626 26 0.0 0.0 0.00 0.00 0.00 44 1010.8
20260507094622 26 0.0 0.0 0.00 0.00 0.00 46 1010.8
20260507092618 25 0.0 0.0 0.00 0.00 0.00 50 1011.1
20260507090614 22 0.0 0.0 0.00 0.00 0.00 57 1011.3
20260507084610 21 0.0 0.0 0.00 0.00 0.00 58 1011.7
20260507082606 21 0.0 0.0 0.00 0.00 0.00 59 1012.0
20260507080602 20 0.0 0.0 0.00 0.00 0.00 60 1012.5
20260507072554 20 0.0 0.0 0.00 0.00 0.00 63 1013.2
20260507070550 20 0.0 0.0 0.00 0.00 0.00 64 1013.2
20260507064546 20 0.0 0.0 0.00 0.00 0.00 65 1013.8
20260507062542 20 0.0 0.0 0.00 0.00 0.00 66 1014.0
20260507060538 19 0.0 0.0 0.00 0.00 0.00 67 1014.1
20260507054534 18 0.0 0.0 0.00 0.00 0.00 68 1013.8
20260507052530 18 0.0 0.0 0.00 0.00 0.00 68 1014.0
20260507050526 17 0.0 0.0 0.00 0.00 0.00 69 1013.9
20260507044522 18 0.0 0.0 0.00 0.00 0.00 69 1014.3
20260507040514 17 0.0 0.0 0.00 0.00 0.00 68 1014.3
20260507034510 17 0.0 0.0 0.00 0.00 0.00 68 1014.3
20260507032506 17 0.0 0.0 0.00 0.00 0.00 68 1014.1
20260507024459 18 0.0 0.0 0.00 0.00 0.00 68 1013.9
20260507022455 17 0.0 0.0 0.00 0.00 0.00 69 1014.2
20260507020451 17 0.0 0.0 0.00 0.00 0.00 67 1014.1
20260507014447 18 0.0 0.0 0.00 0.00 0.00 66 1014.1
20260507012443 18 0.0 0.0 0.00 0.00 0.00 67 1014.4
20260507010439 18 0.0 0.0 0.00 0.00 0.00 67 1014.5
20260507004435 18 0.0 0.0 0.00 0.00 0.00 65 1014.4
20260507000427 18 0.0 0.0 0.00 0.00 0.00 62 1014.4
20260506234423 18 0.0 0.0 0.00 0.00 0.00 63 1014.5
20260506232419 18 0.0 0.0 0.00 0.00 0.00 64 1014.4
20260506230415 18 0.0 0.0 0.00 0.00 0.00 65 1014.3
20260506224411 18 0.0 0.0 0.00 0.00 0.00 66 1014.1
20260506222407 18 0.0 0.0 0.00 0.00 0.00 67 1014.1
20260506220404 18 0.0 0.0 0.00 0.00 0.00 67 1014.2
20260506214400 18 0.0 0.0 0.00 0.00 0.00 66 1014.4
20260506212357 18 0.0 0.0 0.00 0.00 0.00 65 1013.7
20260506210353 18 0.0 0.0 0.00 0.00 0.00 65 1013.8
20260506204350 18 0.0 0.0 0.00 0.00 0.00 65 1014.1
20260506202346 18 0.0 0.0 0.00 0.00 0.00 66 1014.8
20260506200343 18 0.0 0.0 0.00 0.00 0.00 66 1015.4
20260506194340 18 0.0 0.0 0.00 0.00 0.00 66 1015.3
20260506192336 18 0.0 0.0 0.00 0.00 0.00 66 1015.2
20260506190332 18 0.0 0.0 0.00 0.00 0.00 66 1015.4
20260506184328 18 0.0 0.0 0.00 0.00 0.00 66 1015.2
20260506182324 18 0.0 0.0 0.00 0.00 0.00 66 1015.2
20260506180320 18 0.0 0.0 0.00 0.00 0.00 65 1014.9
20260506174316 19 0.0 0.0 0.00 0.00 0.00 65 1014.5
20260506172312 19 0.0 0.0 0.00 0.00 0.00 65 1014.6
20260506170308 19 0.0 0.0 0.00 0.00 0.00 64 1014.7
20260506164304 19 0.0 0.0 0.00 0.00 0.00 64 1014.9
20260506162300 20 0.0 0.0 0.00 0.00 0.00 62 1015.0
20260506160256 20 0.0 0.0 0.00 0.00 0.00 63 1015.1
20260506154252 20 0.0 0.0 0.00 0.00 0.00 62 1015.3
20260506152248 21 0.0 0.0 0.00 0.00 0.00 61 1015.3
20260506150245 21 0.0 0.0 0.00 0.00 0.00 61 1015.3
20260506142237 23 0.0 0.0 0.00 0.00 0.00 57 1014.7
20260506140233 25 0.0 0.0 0.00 0.00 0.00 55 1014.9
20260506130221 23 0.0 0.0 0.00 0.00 0.00 57 1015.2
20260506122214 23 0.0 0.0 0.00 0.00 0.00 54 1015.2
20260506120211 23 0.0 0.0 0.00 0.00 0.00 53 1015.2
20260506114207 24 0.0 0.0 0.00 0.00 0.00 52 1015.4
20260506112204 24 0.0 0.0 0.00 0.00 0.00 52 1015.4
20260506110159 22 0.0 0.0 0.00 0.00 0.00 53 1015.7
20260506104155 22 0.0 0.0 0.00 0.00 0.00 54 1015.8